Regional Weather Roundup
Issued by NWS

Home | Current Version | Previous Version | Graphics & Text | Print | Product List | Glossary On
Versions: 1 2 3 4 5 6 7 8 9 10 11 12 13 14 15 16 17 18 19 20 21 22 23 24 25 26 27 28 29 30 31 32 33 34 35 36 37 38 39 40 41 42 43 44 45 46 47 48 49 50
000
ASUS43 KLOT 300100
RWRIL

ILLINOIS REGIONAL WEATHER ROUNDUP
NATIONAL WEATHER SERVICE CHICAGO/ROMEOVILLE IL
800 PM CDT WED JUL 29 2015

NOTE: "FAIR" INDICATES FEW OR NO CLOUDS BELOW 12,000 FEET WITH NO
SIGNIFICANT WEATHER AND/OR OBSTRUCTIONS TO VISIBILITY.

* THESE STATIONS ARE NOT UNDER NWS QUALITY CONTROL. THEY ALSO MAY NOT
  REPORT WEATHER SUCH AS PRECIPITATION OR FOG.

ILZ001-002-007-009-015-016-024-300200-
NORTHWEST ILLINOIS

CITY           SKY/WX    TMP DP  RH WIND       PRES   REMARKS
MOLINE         CLEAR     79  58  48 W9        30.04R HX  80
STERLING*      CLEAR     75  61  60 W7        30.02R
$$

ILZ003-004-008-010-011-017-018-300200-
NORTH CENTRAL ILLINOIS

CITY           SKY/WX    TMP DP  RH WIND       PRES   REMARKS
ROCKFORD       CLEAR     76  55  48 W7        30.01R
$$

ILZ005-006-012>014-019>023-300200-
NORTHEAST ILLINOIS

CITY           SKY/WX    TMP DP  RH WIND       PRES   REMARKS
CHICAGO-OHARE  PTCLDY    80  52  37 W18       29.98R HX  80
CHICAGO-MIDWAY PTCLDY    82  53  36 W10G21    29.98R HX  81
AURORA         CLEAR     72  60  66 W8        30.01R
WAUKEGAN       CLEAR     77  54  44 VRB5      29.95S
DUPAGE AIRPORT CLEAR     77  56  48 W8        29.99R
WHEELING       CLEAR     81  51  35 W10       29.98R HX  80
NORTHERLY ISL    N/A     81  49  32 W8          N/A  HX  80
$$

LMZ740>746-300200-
SOUTHERN LAKE MICHIGAN

STATION/POSITION SKY/WX   TEMP    WIND        PRES    VSBY  WAVE
                          AIR SEA DIR/SP/G                  HT/PER
                          (F)     (DEG/KT/KT) (MB)    (MI)  (FT/S)
HARRISON CRIB              82     280/ 19/ 22   N/A
BURNHAM HARBOR             83     290/ 10/ 16   N/A
CALUMET HARBOR             83                   N/A
BURNS HARBOR               80     280/  9/ 11 1014.9S
MICHIGAN CITY              78     240/  5/  5   N/A
MICHIGAN CITY 6N           79 77  310/  6/  8   N/A           1
ST. JOSEPH                 78 76  350/ 12/ 12   N/A           1/ 2
$$

ILZ025>027-034>036-040-047-049-050-058-095>099-300200-
WEST-CENTRAL ILLINOIS

CITY           SKY/WX    TMP DP  RH WIND       PRES   REMARKS
QUINCY         CLEAR     77  62  59 NW5       30.09R
$$

ILZ028>032-037-038-041>044-048-051>054-059>061-300200-
CENTRAL ILLINOIS

CITY           SKY/WX    TMP DP  RH WIND       PRES   REMARKS
DECATUR        CLEAR     79  53  40 NW13      30.05R
PEORIA         CLEAR     79  61  53 W6        30.05R HX  80
SPRINGFIELD    CLEAR     77  60  55 NW7       30.06R
TAYLORVILLE    NOT AVBL
$$

ILZ033-039-045-046-055>057-062-063-300200-
EAST-CENTRAL ILLINOIS

CITY           SKY/WX    TMP DP  RH WIND       PRES   REMARKS
CHAMPAIGN      CLEAR     73  63  70 NW3       30.04R
MATTOON        PTCLDY    77  61  57 NW10      30.03R
$$

ILZ079-100>102-300200-
SOUTHWEST ILLINOIS

CITY           SKY/WX    TMP DP  RH WIND       PRES   REMARKS
BELLEVILLE     PTCLDY    82  68  63 VRB5      30.04R HX  84
CAHOKIA*       PTCLDY    84  65  52 N13       30.05R HX  86
$$

ILZ064>066-069>071-074>076-080>082-084>086-088>090-092>094-300200-
SOUTH-CENTRAL ILLINOIS

CITY           SKY/WX    TMP DP  RH WIND       PRES   REMARKS
CARBONDALE     MOCLDY    84  75  74 N6        30.03R HX  92
MT. VERNON     CLOUDY    84  72  65 N6        30.03R HX  89
$$

ILZ067-068-072-073-078-083-087-091-300200-
SOUTHEAST ILLINOIS

CITY           SKY/WX    TMP DP  RH WIND       PRES   REMARKS
LAWRENCEVILLE  CLOUDY    81  71  71 NW13      30.00R HX  85
$$

ABBREVIATIONS USED IN REMARKS
   TC - TEMPERATURE IN CELSIUS
  WCI - WIND CHILL INDEX
   HX - HEAT INDEX
  VSB - VISIBILITY
$$




USA.gov is the U.S. government's official web portal to all federal, state and local government web resources and services.